Regional Weather Roundup
Issued by NWS Grand Forks, ND

Home | Current Version | Previous Version | Graphics & Text | Print | Product List | Glossary On
Versions: 1 2 3 4 5 6 7 8 9 10 11 12 13 14 15 16 17 18 19 20 21 22 23 24 25 26 27 28 29 30 31 32 33 34 35 36 37 38 39 40 41 42 43 44 45 46 47 48 49 50
000
ASUS43 KFGF 202031
RWRFGF
PRAIRIE TO PINES  WEATHER ROUNDUP
NATIONAL WEATHER SERVICE EASTERN NORTH DAKOTA/GRAND FORKS ND
300 PM CDT SAT SEP 20 2014

 **SATELLITE DATA USED TO AUGMENT SKY COVER AT AUTOMATED STATIONS**
 *****  WEATHER ACROSS EASTERN NORTH DAKOTA  *****

CITY           SKY/WX    TMP DP  RH WIND       PRES   REMARKS
GRAND FORKS    CLOUDY    63  54  72 NW24G33   29.79R
GRAND FRKS AFB CLOUDY    61  54  77 NW17G31   29.81R
GRAND FRKS NWS   N/A     63 N/A N/A NW12        N/A
DEVILS LAKE    MOSUNNY   66  48  52 NW29G36   29.83S
FARGO          CLOUDY    64  56  75 NW23G30   29.81R
WAHPETON ARPT  CLOUDY    61  54  77 NW14G22   29.81F
$$

 ***** WEATHER ACROSS CENTRAL AND WESTERN NORTH DAKOTA  *****

CITY           SKY/WX    TMP DP  RH WIND       PRES   REMARKS
BISMARCK       MOSUNNY   70  45  40 NW21G33   29.99R
MINOT          SUNNY     70  39  32 W30G41    29.95R
JAMESTOWN      SUNNY     66  51  58 NW24G37   29.89R
MINOT AFB      SUNNY     70  42  36 NW30G41   29.92S
GARRISON         N/A     70  37  29 NW23G40   29.97R
WILLISTON      PTSUNNY   70  34  26 NW26G35   30.06R
DICKINSON      SUNNY     71  37  28 NW24G35   30.06R
HETTINGER      SUNNY     74  34  23 NW32G38   30.09R
$$

 *****  OTHER AIRPORT OBSERVATIONS IN OUR AREA  *****

CITY           SKY/WX    TMP DP  RH WIND       PRES   REMARKS
WALHALLA         N/A     64  54  68 NW16G26   29.80R
GRAFTON AIRPOR FAIR      61  52  72 NW18G26   29.79R
VALLEY CITY AR LGT RAIN  66  52  59 NW23G37   29.87R
CANDO          FAIR      68  48  49 NW22G29   29.85F
CAVALIER APRT  FAIR      63  50  63 NW18G30   29.79R
GWINNER        CLEAR     68  54  60 NW23G32   29.87R
SHEYENNE NWR     N/A     64  58  82 NW12      29.95
ROLLA          FAIR      66  45  45 NW29G38   29.86S
 ***** THE ABOVE OBSERVATIONS ARE NON NWS ARE NOT QUALITY
       CONTROLLED AND MAY MIS-REPORT RAIN FOR SNOW...
$$

  *****  WEATHER ACROSS NORTHERN MINNESOTA  *****

CITY           SKY/WX    TMP DP  RH WIND       PRES   REMARKS
FLAG ISLAND    PTSUNNY   54  46  76 CALM      29.70S
WARROAD        RAIN      55  52  88 W7        29.71S
ROSEAU         RAIN      55  50  82 N3        29.71S
HALLOCK        CLOUDY    57  54  88 NW18      29.75R
THF RVR FALLS  CLOUDY    55  54  94 NW17G23   29.74R
BAUDETTE       CLOUDY    62  48  60 N7        29.69F
WASKISH        PTSUNNY   63  55  77 CALM      29.69F
CROOKSTON      CLOUDY    55  55 100 NW17G30   29.79R
STEPHEN NDAWN    N/A     57  54  88 NW17        N/A
GREENBUSH NDAW   N/A     55  54  94 W13         N/A
$$
  *****  WEATHER ACROSS CENTRAL AND WEST MINNESOTA  *****

CITY           SKY/WX    TMP DP  RH WIND       PRES   REMARKS
FOSSTON        TSTM      54  52  94 W10       29.76F
BEMIDJI        RAIN      63  56  79 W16G40    29.74R
PARK RAPIDS    RAIN      55  52  89 W16       29.78R FOG
ELBOW LAKE     RAIN      57  56  94 NW10G18   29.82R
WADENA         PTSUNNY   64  55  72 W18G28    29.79R
DETROIT LAKES  CLOUDY    55  54  94 NW13      29.81S
MOORHEAD       CLOUDY    63  57  82 NW20G28   29.83R
FERGUS FALLS   DRIZZLE   59  57  94 NW14      29.82S
MORRIS MN      TSTM      59  57  94 N22G37    29.81R
STAPLES        MOSUNNY   66  54  63 W8        29.75F
$$
  *****  WEATHER ELSEWHERE ACROSS MINNESOTA  *****

CITY           SKY/WX    TMP DP  RH WIND       PRES   REMARKS
DULUTH         MOSUNNY   68  46  45 NW15      29.71S
INTRNTL FALLS  MOSUNNY   59  47  64 NW7       29.70F
ELY            CLOUDY    55  48  76 W6        29.72F
CLOQUET        MOSUNNY   66  50  55 W9G22     29.72S
WHEATON        CLOUDY    57  55  94 NW9       29.85R
BRAINERD       MOSUNNY   68  56  65 NW8       29.75F
HIBBING        MOSUNNY   66  46  48 NW10      29.71F
ALEXANDRIA     TSTM      58  55  90 W17G36    29.83R FOG
SAINT CLOUD    MOSUNNY   76  54  46 NW14      29.75F
MINNEAPOLIS    MOSUNNY   76  54  46 W16       29.77S
$$

  *****  WEATHER ACROSS SOUTH DAKOTA  *****

CITY           SKY/WX    TMP DP  RH WIND       PRES   REMARKS
SIOUX FALLS    MOSUNNY   83  54  36 W13G23    29.87F
BROOKINGS      NOT AVBL
WATERTOWN      PTSUNNY   80  52  37 W23G38    29.81R
HURON          MOSUNNY   84  46  26 NW24G39   29.86S
SISSETON         N/A     58  58 100 N21G29    29.83R
ABERDEEN         N/A    N/A N/A N/A MISG      29.87R
MITCHELL       PTSUNNY   83  49  30 NW26G38   29.89F
PIERRE         SUNNY     81  47  30 NW32G45   29.96R
MOBRIDGE       SUNNY     74  47  38 NW25G35   29.96R
RAPID CITY     SUNNY     77  40  26 NW29G44   30.15S
$$

  *****  SOME WEATHER IN NEARBY STATES *****

CITY           SKY/WX    TMP DP  RH WIND       PRES   REMARKS
GLASGOW MT     SUNNY     71  37  28 NW22G30   30.16R
GREAT FALLS MT SUNNY     71  42  35 NE6       30.24F
CHEYENNE WY    MOSUNNY   79  42  26 VRB6      30.28S
SCOTTSBLUFF NE SUNNY     84  46  26 N10       30.17F
OMAHA NE       MOSUNNY   85  60  42 NW9       29.91F
DES MOINES IA  MOSUNNY   84  65  52 W15       29.86F
DAVENPORT IA   CLOUDY    76  66  71 SW12      29.83F
CHICAGO IL     PTSUNNY   72  69  90 SW13      29.81F
EAU CLAIRE WI  SUNNY     76  56  49 NW15G21   29.73F
LA CROSSE WI   MOSUNNY   77  61  57 NW8       29.75S
$$

  *****  SOME NATIONAL WEATHER *****

CITY           SKY/WX    TMP DP  RH WIND       PRES   REMARKS
LA GUARDIA NY  PTSUNNY   72  59  63 S18       30.17F
RALEIGH NC     MOSUNNY   80  56  43 N8G16     30.07F
ATLANTA GA     MOSUNNY   82  60  47 E9        30.07F
NEW ORLEANS LA MOSUNNY   88  65  46 E10G21    29.95F HX  90
OKLAHOMA CITY  PTSUNNY   85  66  53 S10G18    29.99F
ALBUQUERQUE NM MOSUNNY   83  54  36 S5        30.13F
SALT LAKE CITY MOSUNNY   81  48  31 NW7       30.14F
LOS ANGELES CA PTSUNNY   73  61  64 W6        29.94F
BOISE ID       SUNNY     82  43  25 E3G16     30.10F
SEATTLE WA     SUNNY     70  55  59 N17       30.05F
$$

*** WEATHER ACROSS MANITOBA...SASKATCHEWAN AND ONTARIO ***
                ***ONTARIO***

CITY           SKY/WX    TMP DP  RH WIND       PRES   REMARKS
GERALDTON      DRIZZLE   52  52 100 N12       29.64R
THUNDER BAY    CLOUDY    61  54  77 NW6       29.66R
SIOUX LOOKOUT  PTSUNNY   59  50  72 E5        29.69S
TORONTO        PTSUNNY   77  59  53 SW18G29   29.85S
BIG TROUT LK   PTSUNNY   48  36  61 N7        29.73S
PICKLE LAKE    CLOUDY    48  41  76 N5        29.71S
DRYDEN         CLOUDY    59  50  72 VRB2      29.70R
KENORA         CLOUDY    57  46  67 CALM      29.72
$$
                *** MANITOBA***

CITY           SKY/WX    TMP DP  RH WIND       PRES   REMARKS
BRANDON        PTSUNNY   64  48  55 NW18G30   29.83S
DAUPHIN        LGT RAIN  61  50  67 NW22G32   29.80R
ISLAND LAKE    MOSUNNY   52  39  62 SE6       29.76S
PILOT MOUND    NOT AVBL
THE PAS        PTSUNNY   59  50  72 NW17      29.76R
THOMPSON       PTSUNNY   48  41  76 NE6       29.78R
WINNIPEG       CLOUDY    55  52  88 NW14      29.79R
LYNN LAKE      CLOUDY    46  43  87 VRB2      29.81R
CHURCHILL      PTSUNNY   39  36  87 N13       29.84R
GILLAM         MOSUNNY   46  34  61 N3        29.80R
$$
                ***SASKATCHEWAN***

CITY           SKY/WX    TMP DP  RH WIND       PRES   REMARKS
ESTEVAN        MOSUNNY   68  41  37 NW23G36   29.99S
KINDERSLEY     PTSUNNY   64  41  42 W20G29    30.12
LLOYDMINSTER   MOSUNNY   66  32  28 W21G29    30.08R
PRINCE ALBERT  PTSUNNY   66  43  42 NW24G30   29.93
REGINA         MOSUNNY   66  41  39 NW29G41   30.01R
YORKTON        PTSUNNY   61  45  55 NW23G38   29.88R
N. BATTLEFORD  SUNNY     68  34  28 W30G40    30.04R
LA RONGE       CLOUDY    57  50  77 W16G23    29.87
SASKATOON      MOSUNNY   68  37  32 NW24G36   30.01
SWIFT CURRENT  SUNNY     66  36  32 NW22G31   30.13R
$$
NOTE: THESE ARE AUTOMATED STATIONS WITH LIMITED QUALITY CONTROL
      "FAIR" INDICATES FEW OR NO CLOUDS BELOW 12,000 FEET WITH NO
      SIGNIFICANT WEATHER AND/OR OBSTRUCTIONS TO VISIBILITY.
      SKY/WX - SKY CONDITION AND SIGNIFICANT WEATHER.
      TMP - AIR TEMPERATURE.    DP   - DEWPOINT TEMPERATURE.
      RH  - RELATIVE HUMIDITY.  PRES - PRESSURE.
      HX  - HEAT INDEX.         WCI  - WIND CHILL INDEX.
$



USA.gov is the U.S. government's official web portal to all federal, state and local government web resources and services.